カタログに戻る

STARLINK-34678

運用中通信SSO
NORAD 65443·PAYLOAD·🇺🇸 United States

打ち上げ Sep 3, 2025 から Vandenberg Space Force Base

Loading…

次のパス (今後24時間)

TLE

最新Source: CelesTrak SupGP

元期: Sep 14, 2026, 22:45 UTC

1 65443C 25194K   26257.94840278  .00101670  00000+0  31576-2 0  2572
2 65443  97.2848 107.6492 0001732  93.7973 340.1528 15.33371772    15

AllMySatでSTARLINK-34678をリアルタイム追跡

Download on the App Store